Location: Allos
(44.2333°N, 6.6333°E)
Time: 00:55:12
(UTC+00:00)

DX 1 - Pass Details

Date: 10 May 2021
Orbit: 618 x 631 km, 98.5° (Epoch: 24 June)

Event Time Altitude Azimuth Distance (km) Brightness Sun altitude
Rises 20:26:27 0° 354° (N) 2,913 ? -15.1°
Reaches altitude 10° 20:29:48 10° 327° (NNW) 1,998 ? -15.6°
Maximum altitude 20:31:41 13° 300° (WNW) 1,815 ? -15.8°
Drops below altitude 10° 20:33:35 10° 274° (W) 1,989 ? -16.0°
Sets 20:36:54 0° 246° (WSW) 2,887 ? -16.4°
